Time,TemperatureF,DewpointF,PressureIn,WindDirection,WindDirectionDegrees,WindSpeedMPH,WindSpeedGustMPH,Humidity,HourlyPrecipIn,Conditions,Clouds,dailyrainin,SoftwareType,DateUTC
2013-09-07 00:03:00,63.9,63.6,29.93,SSE,157,0.0,-999.0,99,-99.99,,,0.00,Acu-Link.com,2013-09-07 04:03:00,
2013-09-07 00:18:00,63.5,63.2,29.94,East,90,0.0,-999.0,99,-99.99,,,0.00,Acu-Link.com,2013-09-07 04:18:00,
2013-09-07 00:33:00,63.1,62.8,29.94,ESE,112,0.0,-999.0,99,-99.99,,,0.00,Acu-Link.com,2013-09-07 04:33:00,
2013-09-07 00:48:00,62.8,62.5,29.93,East,90,0.0,-999.0,99,-99.99,,,0.00,Acu-Link.com,2013-09-07 04:48:00,
2013-09-07 01:03:00,62.6,62.3,29.92,SE,135,0.0,-999.0,99,-99.99,,,0.00,Acu-Link.com,2013-09-07 05:03:00,
2013-09-07 01:18:00,62.4,62.1,29.93,ESE,112,0.0,-999.0,99,-99.99,,,0.00,Acu-Link.com,2013-09-07 05:18:00,
2013-09-07 01:33:00,62.4,62.1,29.93,ESE,112,0.0,-999.0,99,-99.99,,,0.00,Acu-Link.com,2013-09-07 05:33:00,
2013-09-07 01:48:00,62.2,61.9,29.93,SSE,157,0.0,-999.0,99,-99.99,,,0.00,Acu-Link.com,2013-09-07 05:48:00,
2013-09-07 02:03:00,61.7,61.4,29.93,SE,135,0.0,-999.0,99,-99.99,,,0.00,Acu-Link.com,2013-09-07 06:03:00,
2013-09-07 02:19:00,61.5,61.2,29.93,SSE,157,0.0,-999.0,99,-99.99,,,0.00,Acu-Link.com,2013-09-07 06:19:00,
2013-09-07 02:34:00,61.3,61.0,29.92,East,90,0.0,-999.0,99,-99.99,,,0.00,Acu-Link.com,2013-09-07 06:34:00,
2013-09-07 02:49:00,61.0,60.7,29.93,ESE,112,0.0,-999.0,99,-99.99,,,0.00,Acu-Link.com,2013-09-07 06:49:00,
2013-09-07 03:04:00,60.4,60.1,29.93,SE,135,0.0,-999.0,99,-99.99,,,0.00,Acu-Link.com,2013-09-07 07:04:00,
2013-09-07 03:19:00,60.3,60.0,29.93,ESE,112,0.0,-999.0,99,-99.99,,,0.00,Acu-Link.com,2013-09-07 07:19:00,
2013-09-07 03:34:00,60.3,60.0,29.93,East,90,0.0,-999.0,99,-99.99,,,0.00,Acu-Link.com,2013-09-07 07:34:00,
2013-09-07 03:50:00,60.1,59.8,29.93,SE,135,0.0,-999.0,99,-99.99,,,0.00,Acu-Link.com,2013-09-07 07:50:00,
2013-09-07 04:05:00,59.5,59.2,29.93,ESE,112,0.0,-999.0,99,-99.99,,,0.00,Acu-Link.com,2013-09-07 08:05:00,
2013-09-07 04:21:00,59.5,59.2,29.92,ESE,112,0.0,-999.0,99,-99.99,,,0.00,Acu-Link.com,2013-09-07 08:21:00,
2013-09-07 04:36:00,59.5,59.2,29.93,ESE,112,0.0,-999.0,99,-99.99,,,0.00,Acu-Link.com,2013-09-07 08:36:00,
2013-09-07 04:51:00,59.4,59.1,29.93,SE,135,0.0,-999.0,99,-99.99,,,0.00,Acu-Link.com,2013-09-07 08:51:00,
2013-09-07 05:06:00,59.2,58.9,29.93,SSE,157,0.0,-999.0,99,-99.99,,,0.00,Acu-Link.com,2013-09-07 09:06:00,
2013-09-07 05:21:00,59.0,58.7,29.92,SSE,157,0.0,-999.0,99,-99.99,,,0.00,Acu-Link.com,2013-09-07 09:21:00,
2013-09-07 05:36:00,58.8,58.5,29.93,SE,135,0.0,-999.0,99,-99.99,,,0.00,Acu-Link.com,2013-09-07 09:36:00,
2013-09-07 05:52:00,58.5,58.2,29.93,SE,135,0.0,-999.0,99,-99.99,,,0.00,Acu-Link.com,2013-09-07 09:52:00,
2013-09-07 06:07:00,58.5,58.2,29.93,SE,135,0.0,-999.0,99,-99.99,,,0.00,Acu-Link.com,2013-09-07 10:07:00,
2013-09-07 06:22:00,58.3,58.0,29.94,ESE,112,0.0,-999.0,99,-99.99,,,0.00,Acu-Link.com,2013-09-07 10:22:00,
2013-09-07 06:37:00,58.1,57.8,29.94,ESE,112,0.0,-999.0,99,-99.99,,,0.00,Acu-Link.com,2013-09-07 10:37:00,
2013-09-07 06:52:00,58.1,57.8,29.95,SE,135,0.0,-999.0,99,-99.99,,,0.00,Acu-Link.com,2013-09-07 10:52:00,
2013-09-07 07:07:00,58.6,58.3,29.94,SSE,157,0.0,-999.0,99,-99.99,,,0.00,Acu-Link.com,2013-09-07 11:07:00,
2013-09-07 07:22:00,58.1,57.8,29.95,ESE,112,0.0,-999.0,99,-99.99,,,0.00,Acu-Link.com,2013-09-07 11:22:00,
2013-09-07 07:37:00,58.5,58.2,29.95,SSE,157,0.0,-999.0,99,-99.99,,,0.00,Acu-Link.com,2013-09-07 11:37:00,
2013-09-07 07:52:00,59.0,58.7,29.96,SW,225,0.0,-999.0,99,-99.99,,,0.00,Acu-Link.com,2013-09-07 11:52:00,
2013-09-07 08:08:00,59.9,59.6,29.96,SE,135,0.0,-999.0,99,-99.99,,,0.00,Acu-Link.com,2013-09-07 12:08:00,
2013-09-07 08:23:00,61.7,61.4,29.96,ESE,112,0.0,-999.0,99,-99.99,,,0.00,Acu-Link.com,2013-09-07 12:23:00,
2013-09-07 08:38:00,63.9,63.6,29.96,ESE,112,0.0,-999.0,99,-99.99,,,0.00,Acu-Link.com,2013-09-07 12:38:00,
2013-09-07 08:53:00,65.8,65.5,29.96,SSW,202,0.0,-999.0,99,-99.99,,,0.00,Acu-Link.com,2013-09-07 12:53:00,
2013-09-07 09:08:00,70.2,69.9,29.97,NE,45,0.0,-999.0,99,-99.99,,,0.00,Acu-Link.com,2013-09-07 13:08:00,
2013-09-07 09:23:00,74.3,70.2,29.96,SW,225,0.0,-999.0,87,-99.99,,,0.00,Acu-Link.com,2013-09-07 13:23:00,
2013-09-07 09:38:00,79.7,71.8,29.96,ENE,67,0.0,-999.0,77,-99.99,,,0.00,Acu-Link.com,2013-09-07 13:38:00,
2013-09-07 09:53:00,80.4,71.3,29.97,ESE,112,0.0,-999.0,74,-99.99,,,0.00,Acu-Link.com,2013-09-07 13:53:00,
2013-09-07 10:08:00,80.8,70.5,29.97,East,90,0.0,-999.0,71,-99.99,,,0.00,Acu-Link.com,2013-09-07 14:08:00,
2013-09-07 10:24:00,76.3,69.7,29.97,SSW,202,0.0,-999.0,80,-99.99,,,0.00,Acu-Link.com,2013-09-07 14:24:00,
2013-09-07 10:39:00,78.6,70.0,29.97,ENE,67,3.2,-999.0,75,-99.99,,,0.00,Acu-Link.com,2013-09-07 14:39:00,
2013-09-07 10:54:00,76.8,69.0,29.98,WNW,292,2.2,-999.0,77,-99.99,,,0.00,Acu-Link.com,2013-09-07 14:54:00,
2013-09-07 11:09:00,79.2,70.2,29.98,SSW,202,1.7,-999.0,74,-99.99,,,0.01,Acu-Link.com,2013-09-07 15:09:00,
2013-09-07 11:24:00,78.3,70.5,29.98,ESE,112,0.0,-999.0,77,-99.99,,,0.01,Acu-Link.com,2013-09-07 15:24:00,
2013-09-07 11:39:00,79.7,69.4,29.97,SW,225,4.7,-999.0,71,-99.99,,,0.01,Acu-Link.com,2013-09-07 15:39:00,
2013-09-07 11:54:00,80.1,70.2,29.97,West,270,2.7,-999.0,72,-99.99,,,0.01,Acu-Link.com,2013-09-07 15:54:00,
2013-09-07 12:09:00,82.0,72.1,29.97,ESE,112,1.1,-999.0,72,-99.99,,,0.01,Acu-Link.com,2013-09-07 16:09:00,
2013-09-07 12:24:00,83.1,70.1,29.96,SW,225,3.2,-999.0,65,-99.99,,,0.01,Acu-Link.com,2013-09-07 16:24:00,
2013-09-07 12:40:00,83.1,69.6,29.96,ESE,112,4.7,-999.0,64,-99.99,,,0.01,Acu-Link.com,2013-09-07 16:40:00,
2013-09-07 12:55:00,82.4,69.9,29.95,SW,225,1.7,-999.0,66,-99.99,,,0.01,Acu-Link.com,2013-09-07 16:55:00,
2013-09-07 13:10:00,83.8,70.3,29.95,South,180,2.2,-999.0,64,-99.99,,,0.01,Acu-Link.com,2013-09-07 17:10:00,
2013-09-07 13:25:00,84.2,69.3,29.94,East,90,2.2,-999.0,61,-99.99,,,0.01,Acu-Link.com,2013-09-07 17:25:00,
2013-09-07 13:40:00,85.3,69.3,29.94,ENE,67,0.0,-999.0,59,-99.99,,,0.01,Acu-Link.com,2013-09-07 17:40:00,
2013-09-07 13:55:00,84.2,70.2,29.93,ESE,112,4.2,-999.0,63,-99.99,,,0.01,Acu-Link.com,2013-09-07 17:55:00,
2013-09-07 14:11:00,85.1,71.1,29.92,ESE,112,3.2,-999.0,63,-99.99,,,0.01,Acu-Link.com,2013-09-07 18:11:00,
2013-09-07 14:26:00,87.1,70.5,29.92,South,180,5.8,-999.0,58,-99.99,,,0.01,Acu-Link.com,2013-09-07 18:26:00,
2013-09-07 14:41:00,83.3,69.8,29.92,SSW,202,2.7,-999.0,64,-99.99,,,0.01,Acu-Link.com,2013-09-07 18:41:00,
2013-09-07 14:56:00,87.4,69.7,29.91,South,180,1.7,-999.0,56,-99.99,,,0.01,Acu-Link.com,2013-09-07 18:56:00,
2013-09-07 15:11:00,85.8,69.3,29.90,ESE,112,2.7,-999.0,58,-99.99,,,0.01,Acu-Link.com,2013-09-07 19:11:00,
2013-09-07 15:26:00,87.1,70.5,29.90,SSE,157,2.7,-999.0,58,-99.99,,,0.01,Acu-Link.com,2013-09-07 19:26:00,
2013-09-07 15:41:00,87.1,70.5,29.89,SSE,157,2.7,-999.0,58,-99.99,,,0.01,Acu-Link.com,2013-09-07 19:41:00,
2013-09-07 15:56:00,87.3,70.7,29.88,South,180,2.2,-999.0,58,-99.99,,,0.01,Acu-Link.com,2013-09-07 19:56:00,
2013-09-07 16:11:00,87.6,69.9,29.88,SSW,202,2.7,-999.0,56,-99.99,,,0.01,Acu-Link.com,2013-09-07 20:11:00,
2013-09-07 16:27:00,86.0,70.5,29.87,SSE,157,2.2,-999.0,60,-99.99,,,0.01,Acu-Link.com,2013-09-07 20:27:00,
2013-09-07 16:42:00,87.6,70.5,29.86,WNW,292,2.2,-999.0,57,-99.99,,,0.01,Acu-Link.com,2013-09-07 20:42:00,
2013-09-07 16:57:00,86.2,71.1,29.87,West,270,1.7,-999.0,61,-99.99,,,0.01,Acu-Link.com,2013-09-07 20:57:00,
2013-09-07 17:12:00,87.1,70.0,29.86,ESE,112,0.0,-999.0,57,-99.99,,,0.01,Acu-Link.com,2013-09-07 21:12:00,
2013-09-07 17:27:00,86.0,70.0,29.86,SW,225,1.1,-999.0,59,-99.99,,,0.01,Acu-Link.com,2013-09-07 21:27:00,
2013-09-07 17:42:00,85.6,69.6,29.86,WSW,247,2.7,-999.0,59,-99.99,,,0.01,Acu-Link.com,2013-09-07 21:42:00,
2013-09-07 17:57:00,85.6,69.1,29.85,SSW,202,2.7,-999.0,58,-99.99,,,0.01,Acu-Link.com,2013-09-07 21:57:00,
2013-09-07 18:12:00,85.1,71.1,29.85,ESE,112,0.0,-999.0,63,-99.99,,,0.01,Acu-Link.com,2013-09-07 22:12:00,
2013-09-07 18:27:00,83.8,71.6,29.85,SE,135,0.0,-999.0,67,-99.99,,,0.01,Acu-Link.com,2013-09-07 22:27:00,
2013-09-07 18:42:00,86.7,73.5,29.84,East,90,0.0,-999.0,65,-99.99,,,0.01,Acu-Link.com,2013-09-07 22:42:00,
2013-09-07 18:58:00,84.6,73.3,29.85,ESE,112,0.0,-999.0,69,-99.99,,,0.01,Acu-Link.com,2013-09-07 22:58:00,
2013-09-07 19:13:00,82.0,72.9,29.85,SSE,157,0.0,-999.0,74,-99.99,,,0.01,Acu-Link.com,2013-09-07 23:13:00,
2013-09-07 19:28:00,79.7,72.6,29.85,East,90,0.0,-999.0,79,-99.99,,,0.01,Acu-Link.com,2013-09-07 23:28:00,
2013-09-07 19:43:00,77.2,72.3,29.85,East,90,0.0,-999.0,85,-99.99,,,0.01,Acu-Link.com,2013-09-07 23:43:00,
2013-09-07 19:58:00,75.4,71.6,29.85,East,90,0.0,-999.0,88,-99.99,,,0.01,Acu-Link.com,2013-09-07 23:58:00,
2013-09-07 20:13:00,73.8,71.3,29.85,East,90,0.0,-999.0,92,-99.99,,,0.01,Acu-Link.com,2013-09-08 00:13:00,
2013-09-07 20:28:00,72.3,71.7,29.85,ESE,112,0.0,-999.0,98,-99.99,,,0.01,Acu-Link.com,2013-09-08 00:28:00,
2013-09-07 20:43:00,71.4,71.1,29.86,SE,135,0.0,-999.0,99,-99.99,,,0.01,Acu-Link.com,2013-09-08 00:43:00,
2013-09-07 20:58:00,70.5,69.6,29.86,ESE,112,0.0,-999.0,97,-99.99,,,0.01,Acu-Link.com,2013-09-08 00:58:00,
2013-09-07 21:14:00,70.0,69.7,29.85,ESE,112,0.0,-999.0,99,-99.99,,,0.01,Acu-Link.com,2013-09-08 01:14:00,
2013-09-07 21:29:00,69.4,69.1,29.86,SSE,157,0.0,-999.0,99,-99.99,,,0.01,Acu-Link.com,2013-09-08 01:29:00,
2013-09-07 21:44:00,68.7,68.4,29.86,SSE,157,0.0,-999.0,99,-99.99,,,0.01,Acu-Link.com,2013-09-08 01:44:00,
2013-09-07 21:59:00,68.4,68.1,29.87,SSE,157,0.0,-999.0,99,-99.99,,,0.01,Acu-Link.com,2013-09-08 01:59:00,
2013-09-07 22:14:00,68.2,67.9,29.86,SSE,157,0.0,-999.0,99,-99.99,,,0.01,Acu-Link.com,2013-09-08 02:14:00,
2013-09-07 22:29:00,67.6,67.3,29.87,ESE,112,0.0,-999.0,99,-99.99,,,0.01,Acu-Link.com,2013-09-08 02:29:00,
2013-09-07 22:44:00,67.3,67.0,29.87,SSE,157,0.0,-999.0,99,-99.99,,,0.01,Acu-Link.com,2013-09-08 02:44:00,
2013-09-07 22:59:00,67.1,66.8,29.87,ESE,112,0.0,-999.0,99,-99.99,,,0.01,Acu-Link.com,2013-09-08 02:59:00,
2013-09-07 23:14:00,66.9,66.6,29.87,SSE,157,0.0,-999.0,99,-99.99,,,0.01,Acu-Link.com,2013-09-08 03:14:00,
2013-09-07 23:30:00,66.6,66.3,29.87,SSE,157,0.0,-999.0,99,-99.99,,,0.01,Acu-Link.com,2013-09-08 03:30:00,
2013-09-07 23:45:00,66.2,65.9,29.87,SSE,157,0.0,-999.0,99,-99.99,,,0.01,Acu-Link.com,2013-09-08 03:45:00,